Miscellaneous Local Product
Issued by NWS Hastings, NE

Home | Current Version | Previous Version | Graphics & Text | Print | Product List | Glossary On
Versions: 1 2 3 4 5 6 7 8 9 10 11 12 13 14 15 16 17 18 19 20 21 22 23 24 25 26 27 28 29 30 31 32 33 34 35 36 37 38 39 40 41 42 43 44 45 46 47 48 49 50
270
AXUS43 KGID 282202
MISGRI

GID CWA HOURLY WEATHER ROUNDUP
NATIONAL WEATHER SERVICE HASTINGS NE
500 PM CDT THU APR 28 2016

NOTE: "FAIR" INDICATES FEW OR NO CLOUDS BELOW 12,000 FEET WITH NO
SIGNIFICANT WEATHER AND/OR OBSTRUCTIONS TO VISIBILITY.

...SOUTH CENTRAL NEBRASKA...

CITY           SKY/WX    TMP DP  RH WIND       PRES   REMARKS
GRAND ISLAND   CLOUDY    49  39  68 N8        30.03R
HASTINGS       CLOUDY    49  41  74 N10       30.01F
KEARNEY        CLOUDY    48  39  71 N10       30.02F
ORD            CLOUDY    46  39  76 N8        30.02S
YORK           CLOUDY    48  41  76 N8        30.03R
AURORA         CLOUDY    50  41  73 N8        30.02S
LEXINGTON      LGT RAIN  47  39  73 N7        30.01F
HOLDREGE       LGT RAIN  48  42  78 N9        30.00F
HEBRON         CLOUDY    52  43  71 N14       30.00F

...NEBRASKA PANHANDLE...

CITY           SKY/WX    TMP DP  RH WIND       PRES   REMARKS
CHADRON        LGT RAIN  43  36  76 NE10      30.03S
ALLIANCE       CLOUDY    41  30  65 NE5       30.01S
SCOTTSBLUFF    CLOUDY    43  29  57 SE8       30.02R
SIDNEY         CLOUDY    40  34  79 NE8       30.02S WCI  34

...WESTERN AND NORTH CENTRAL NEBRASKA...

CITY           SKY/WX    TMP DP  RH WIND       PRES   REMARKS
VALENTINE      CLOUDY    43  35  73 N12       30.04R
AINSWORTH      CLOUDY    43  38  80 N10       30.03R
ONEILL         CLOUDY    43  39  85 N10       30.03S
BROKEN BOW     CLOUDY    47  38  71 N6        30.01F
IMPERIAL       CLOUDY    46  37  71 N3        30.01R
NORTH PLATTE   CLOUDY    47  36  65 NW5       30.02S
MCCOOK         CLOUDY    49  38  65 NE7       30.01R

...EASTERN NEBRASKA...

CITY           SKY/WX    TMP DP  RH WIND       PRES   REMARKS
NORFOLK        CLOUDY    46  38  73 N12       30.01R
SO SIOUX CITY  CLOUDY    46  39  76 NW10      30.01S
TEKAMAH        CLOUDY    48  42  80 NW13      30.01R
COLUMBUS       CLOUDY    46  36  66 NW12      30.04R
ALBION         CLOUDY    45  38  77 N6        30.04R
OMAHA EPPLEY   CLOUDY    49  42  77 NW12      30.01R
OFFUTT AFB     CLOUDY    50  43  77 NW10      30.00R
MILLARD        CLOUDY    50  42  73 NW9       30.01R
LINCOLN        CLOUDY    52  40  63 NW9       30.02S
NEBRASKA CITY  CLOUDY    52  43  70 NW13      29.99S
BEATRICE       CLOUDY    51  43  73 NW13      30.00S
FALLS CITY     CLOUDY    54  45  71 NW12      29.98S

...NORTHERN KANSAS...

CITY           SKY/WX    TMP DP  RH WIND       PRES   REMARKS
GOODLAND       CLOUDY    51  34  52 NE7       29.98F
HILL CITY      SUNNY     56  40  55 NE7       29.99F
NORTON         CLOUDY    54  36  50 N8        29.99
PHILLIPSBURG   SUNNY     54  43  66 CALM      30.00S
SMITH CENTER   MOSUNNY   54  43  66 N7G17     29.99F
BELOIT         SUNNY     55  41  58 N6        29.98F
HAYS           CLOUDY    57  37  47 NE8       29.98S
RUSSELL        CLOUDY    59  41  51 NE8       29.95F
CONCORDIA      CLOUDY    58  44  60 N9        29.99F
SALINA         MOSUNNY   61  44  53 N12       29.98F
TOPEKA         PTSUNNY   62  47  57 NW8       29.99S



USA.gov is the U.S. government's official web portal to all federal, state and local government web resources and services.